FW8305 Weather Reports


time (UTC)temp
F
wind
direction
speed
knots
gust
knots
rain 1hr
in
rain 24hr
in
rain mn
in
humidity
%
barometer
mb
20260505041544 68 236 0.0 0.9 0.00 0.00 0.00 67 1005.1
20260505041009 69 0 0.0 1.7 0.00 0.00 0.00 67 1005.2
20260505040509 69 0 0.0 1.7 0.00 0.00 0.00 67 1005.2
20260505040029 69 0 0.0 1.7 0.00 0.00 0.00 67 1005.3
20260505035510 69 0 0.0 1.7 0.00 0.00 0.00 67 1005.4
20260505035011 69 0 0.0 0.9 0.00 0.00 0.00 68 1005.4
20260505034528 69 0 0.0 0.9 0.00 0.00 0.00 67 1005.5
20260505034009 69 0 0.0 0.0 0.00 0.00 0.00 67 1005.5
20260505033508 69 0 0.0 1.7 0.00 0.00 0.00 67 1005.5
20260505033030 69 0 0.0 1.7 0.00 0.00 0.00 67 1005.4
20260505032517 69 0 0.0 0.9 0.00 0.00 0.00 67 1005.4
20260505032011 69 0 0.0 0.9 0.00 0.00 0.00 68 1005.4
20260505031532 69 0 0.0 0.0 0.00 0.00 0.00 68 1005.3
20260505031011 69 0 0.0 0.9 0.00 0.00 0.00 68 1005.2
20260505030510 69 0 0.0 0.9 0.00 0.00 0.00 68 1005.2
20260505030029 69 0 0.0 0.0 0.00 0.00 0.00 68 1005.2
20260505025514 69 0 0.0 0.0 0.00 0.00 0.00 68 1005.1
20260505025010 69 0 0.0 0.0 0.00 0.00 0.00 68 1005.0
20260505024528 69 0 0.0 0.0 0.00 0.00 0.00 68 1004.9
20260505024012 69 0 0.0 0.9 0.00 0.00 0.00 68 1004.9
20260505023511 69 0 0.0 0.9 0.00 0.00 0.00 68 1004.8
20260505023032 69 0 0.0 0.9 0.00 0.00 0.00 69 1004.7
20260505022509 69 0 0.0 0.9 0.00 0.00 0.00 68 1004.7
20260505022010 69 0 0.0 0.9 0.00 0.00 0.00 69 1004.6
20260505021529 69 0 0.0 0.0 0.00 0.00 0.00 69 1004.6
20260505021009 69 0 0.0 0.0 0.00 0.00 0.00 69 1004.6
20260505020510 69 0 0.0 0.0 0.00 0.00 0.00 68 1004.4
20260505020036 69 0 0.0 0.0 0.00 0.00 0.00 68 1004.3
20260505015511 69 0 0.0 0.0 0.00 0.00 0.00 68 1004.3
20260505015013 70 0 0.0 0.0 0.00 0.00 0.00 67 1004.2
20260505014528 70 0 0.0 0.0 0.00 0.00 0.00 67 1004.0
20260505014010 70 0 0.0 0.0 0.00 0.00 0.00 67 1004.0
20260505013510 70 0 0.0 0.0 0.00 0.00 0.00 66 1003.9
20260505013029 70 0 0.0 0.0 0.00 0.00 0.00 66 1003.8
20260505012512 71 0 0.0 0.0 0.00 0.00 0.00 65 1003.7
20260505012010 71 0 0.0 0.0 0.00 0.00 0.00 64 1003.8
20260505011528 71 0 0.0 0.0 0.00 0.00 0.00 64 1003.7
20260505011010 72 0 0.0 0.0 0.00 0.00 0.00 63 1003.7
20260505010510 72 0 0.0 0.0 0.00 0.00 0.00 62 1003.6
20260505010032 73 0 0.0 0.0 0.00 0.00 0.00 62 1003.6
20260505005509 73 0 0.0 0.0 0.00 0.00 0.00 61 1003.6
20260505005010 74 0 0.0 0.0 0.00 0.00 0.00 60 1003.6
20260505004531 74 0 0.0 0.0 0.00 0.00 0.00 60 1003.5
20260505004009 74 0 0.0 0.0 0.00 0.00 0.00 59 1003.6
20260505003509 75 0 0.0 0.0 0.00 0.00 0.00 58 1003.5
20260505003031 75 0 0.0 6.1 0.00 0.00 0.00 57 1003.5
20260505002511 75 0 0.9 6.1 0.00 0.00 0.00 57 1003.3
20260505002010 76 0 0.0 0.9 0.00 0.00 0.00 56 1003.4
20260505001528 76 0 0.0 0.9 0.00 0.00 0.00 56 1003.5
20260505001010 76 0 0.0 5.2 0.00 0.00 0.00 55 1003.5
20260505000509 76 0 0.0 5.2 0.00 0.00 0.00 55 1003.5
20260505000037 76 264 0.0 5.2 0.00 0.00 0.00 54 1003.3
20260504235511 76 245 0.0 11.3 0.00 0.00 0.00 54 1003.4
20260504235009 77 248 2.6 11.3 0.00 0.00 0.00 54 1003.3
20260504234533 77 236 2.6 11.3 0.00 0.00 0.00 54 1003.3
20260504234010 77 0 0.0 6.1 0.00 0.00 0.00 54 1003.3
20260504233509 77 0 0.0 7.0 0.00 0.00 0.00 54 1003.3
20260504233029 77 0 0.9 8.7 0.00 0.00 0.00 53 1003.3
20260504232510 77 220 1.7 8.7 0.00 0.00 0.00 53 1003.3
20260504232029 77 240 0.9 8.7 0.00 0.00 0.00 54 1003.3
20260504231533 78 227 0.0 11.3 0.00 0.00 0.00 52 1003.3
20260504231010 78 239 1.7 13.0 0.00 0.00 0.00 53 1003.3
20260504230511 78 220 4.3 13.0 0.00 0.00 0.00 50 1003.3
20260504230028 79 251 3.5 13.0 0.00 0.00 0.00 51 1003.3
20260504225510 79 224 2.6 11.3 0.00 0.00 0.00 50 1003.3
20260504225012 79 295 1.7 12.2 0.00 0.00 0.00 51 1003.2
20260504224532 79 242 3.5 12.2 0.00 0.00 0.00 50 1003.3
20260504224008 80 277 5.2 13.0 0.00 0.00 0.00 50 1003.3
20260504223511 79 280 3.5 13.9 0.00 0.00 0.00 51 1003.3
20260504223032 79 266 3.5 14.8 0.00 0.00 0.00 51 1003.3
20260504222510 79 272 4.3 14.8 0.00 0.00 0.00 50 1003.4
20260504222010 80 255 7.0 12.2 0.00 0.00 0.00 49 1003.3
20260504221530 80 277 4.3 16.5 0.00 0.00 0.00 49 1003.3
20260504221009 80 240 5.2 16.5 0.00 0.00 0.00 50 1003.2
20260504220509 80 234 4.3 14.8 0.00 0.00 0.00 49 1003.2
20260504220029 80 288 2.6 16.5 0.00 0.00 0.00 51 1003.4
20260504215512 80 221 8.7 16.5 0.00 0.00 0.00 49 1003.3
20260504215011 80 250 7.0 16.5 0.00 0.00 0.00 47 1003.3
20260504214540 80 287 7.0 17.4 0.00 0.00 0.00 48 1003.3
20260504214014 80 217 7.0 17.4 0.00 0.00 0.00 48 1003.3
20260504213510 80 277 7.0 15.6 0.00 0.00 0.00 48 1003.3
20260504213030 80 270 8.7 15.6 0.00 0.00 0.00 47 1003.3
20260504212509 81 266 8.7 14.8 0.00 0.00 0.00 47 1003.5
20260504212008 81 269 2.6 13.9 0.00 0.00 0.00 49 1003.4
20260504211527 81 255 6.1 13.9 0.00 0.00 0.00 48 1003.3
20260504211011 81 257 4.3 13.9 0.00 0.00 0.00 48 1003.4
20260504210517 81 266 6.1 18.2 0.00 0.00 0.00 48 1003.3
20260504210027 80 233 7.0 18.2 0.00 0.00 0.00 48 1003.4
20260504205511 80 271 8.7 18.2 0.00 0.00 0.00 46 1003.5
20260504205012 81 270 7.8 19.1 0.00 0.00 0.00 48 1003.5
20260504204529 81 243 8.7 19.1 0.00 0.00 0.00 47 1003.5
20260504204009 81 226 7.8 19.1 0.00 0.00 0.00 46 1003.6
20260504203509 81 226 5.2 13.9 0.00 0.00 0.00 49 1003.6
20260504203031 81 282 3.5 13.0 0.00 0.00 0.00 50 1003.7
20260504202511 80 210 2.6 13.0 0.00 0.00 0.00 51 1003.7
20260504202010 79 226 5.2 12.2 0.00 0.00 0.00 54 1003.8
20260504201530 79 255 2.6 14.8 0.00 0.00 0.00 51 1003.9
20260504201008 79 243 7.0 17.4 0.00 0.00 0.00 51 1003.9
20260504200507 79 250 6.1 17.4 0.00 0.00 0.00 51 1003.9
20260504200033 78 256 7.8 17.4 0.00 0.00 0.00 49 1003.9
20260504195509 79 252 7.0 13.9 0.00 0.00 0.00 50 1004.0
20260504195011 79 231 1.7 13.0 0.00 0.00 0.00 52 1004.1
20260504194529 79 276 5.2 17.4 0.00 0.00 0.00 51 1004.1
20260504194010 79 262 7.8 17.4 0.00 0.00 0.00 49 1004.2
20260504193514 79 247 7.8 13.9 0.00 0.00 0.00 52 1004.2
20260504193027 79 264 4.3 14.8 0.00 0.00 0.00 52 1004.3
20260504192514 79 238 3.5 14.8 0.00 0.00 0.00 51 1004.3
20260504192009 79 218 8.7 14.8 0.00 0.00 0.00 50 1004.2
20260504191528 79 245 7.0 13.9 0.00 0.00 0.00 51 1004.3
20260504191013 78 215 6.1 15.6 0.00 0.00 0.00 51 1004.4
20260504190511 78 249 8.7 15.6 0.00 0.00 0.00 50 1004.4
20260504190030 78 266 6.1 18.2 0.00 0.00 0.00 53 1004.5
20260504185509 78 269 8.7 18.2 0.00 0.00 0.00 51 1004.6
20260504185009 78 217 5.2 14.8 0.00 0.00 0.00 53 1004.5
20260504184536 78 225 7.0 16.5 0.00 0.00 0.00 51 1004.5
20260504184009 78 237 7.0 16.5 0.00 0.00 0.00 52 1004.5
20260504183507 78 228 7.8 17.4 0.00 0.00 0.00 52 1004.5
20260504183035 78 270 7.0 17.4 0.00 0.00 0.00 53 1004.4
20260504182509 78 217 1.7 10.4 0.00 0.00 0.00 53 1004.6
20260504182010 78 0 0.9 13.0 0.00 0.00 0.00 55 1004.6
20260504181527 78 210 3.5 13.9 0.00 0.00 0.00 52 1004.6
20260504181010 77 207 5.2 13.9 0.00 0.00 0.00 54 1004.6
20260504180511 77 251 1.7 13.9 0.00 0.00 0.00 55 1004.6
20260504180030 76 0 2.6 13.9 0.00 0.00 0.00 56 1004.8
20260504175511 76 232 1.7 8.7 0.00 0.00 0.00 56 1004.9
20260504175011 74 291 0.0 13.9 0.00 0.00 0.00 58 1005.0
20260504174526 74 263 5.2 13.9 0.00 0.00 0.00 55 1004.9
20260504174008 75 281 6.1 13.9 0.00 0.00 0.00 54 1004.8
20260504173512 75 250 3.5 11.3 0.00 0.00 0.00 53 1005.0
20260504173029 75 0 0.0 10.4 0.00 0.00 0.00 57 1005.0
20260504172512 74 0 0.0 10.4 0.00 0.00 0.00 54 1004.9
20260504172011 73 0 2.6 10.4 0.00 0.00 0.00 54 1004.9
20260504171528 73 238 1.7 12.2 0.00 0.00 0.00 53 1004.7
20260504171011 73 283 6.1 20.0 0.00 0.00 0.00 52 1004.3
20260504170515 74 312 5.2 20.0 0.00 0.00 0.00 52 1004.6
20260504151009 72 234 5.2 15.6 0.00 0.00 0.00 52 1005.3
20260504150510 72 240 7.8 15.6 0.00 0.00 0.00 51 1005.3
20260504141013 69 0 5.2 13.0 0.00 0.00 0.00 56 1005.9
20260504140510 68 240 0.9 11.3 0.00 0.00 0.00 57 1006.0
20260504130509 63 255 1.7 9.6 0.00 0.00 0.00 61 1006.3
20260504110510 63 0 0.0 6.1 0.00 0.00 0.00 59 1006.5
20260504100509 64 0 0.9 9.6 0.00 0.00 0.00 57 1006.9
20260504081530 61 0 0.0 0.0 0.00 0.00 0.00 64 1007.7
20260504081012 62 0 0.0 0.0 0.00 0.00 0.00 63 1007.7
20260504080512 62 0 0.0 0.0 0.00 0.00 0.00 62 1007.9
20260504050510 66 0 0.0 2.6 0.00 0.00 0.00 57 1008.5
20260504045510 66 0 0.0 1.7 0.00 0.00 0.00 57 1008.6
20260504045014 66 0 0.0 2.6 0.00 0.00 0.00 56 1008.6
20260504044528 66 0 0.0 2.6 0.00 0.00 0.00 56 1008.7
20260504044009 66 250 0.0 2.6 0.00 0.00 0.00 57 1008.7
20260504043509 66 0 0.0 0.9 0.00 0.00 0.00 56 1008.7
20260504043042 65 0 0.0 0.0 0.00 0.00 0.00 56 1008.8
20260504042510 65 0 0.0 0.9 0.00 0.00 0.00 56 1008.9